This is the latest recevied weather packets stored in our database for station/object AC5CM. If no packets are shown the sender has not sent any weather packets the latest 10 day(s).
| Time | Temp. | Humidity | Pressure | Rain* | Wind** | Luminosity | Snow |
|---|---|---|---|---|---|---|---|
| 1777059455 | 28.33° C | 73% | 1008.5 hPa | 0 mm | - | - | - |
| 1777059152 | 28.33° C | 74% | 1008.3 hPa | 0 mm | - | - | - |
| 1777058847 | 28.33° C | 74% | 1008.5 hPa | 0 mm | - | - | - |
| 1777058541 | 28.33° C | 73% | 1008.6 hPa | 0 mm | - | - | - |
| 1777058239 | 28.89° C | 73% | 1008.6 hPa | 0 mm | - | - | - |
| 1777057935 | 28.33° C | 72% | 1008.7 hPa | 0 mm | - | - | - |
| 1777057629 | 28.33° C | 73% | 1008.8 hPa | 0 mm | - | - | - |
| 1777057325 | 28.33° C | 73% | 1008.8 hPa | 0 mm | - | - | - |
| 1777057021 | 28.89° C | 71% | 1008.9 hPa | 0 mm | - | - | - |
| 1777056720 | 29.44° C | 70% | 1008.9 hPa | 0 mm | - | - | - |
| 1777056416 | 29.44° C | 72% | 1008.9 hPa | 0 mm | - | - | - |
| 1777056112 | 29.44° C | 71% | 1009.1 hPa | 0 mm | - | - | - |
| 1777055809 | 28.89° C | 73% | 1009.2 hPa | 0 mm | - | - | - |
| 1777055505 | 28.33° C | 74% | 1009.3 hPa | 0 mm | - | - | - |
| 1777055199 | 28.33° C | 74% | 1009.2 hPa | 0 mm | - | - | - |
| 1777054898 | 28.33° C | 72% | 1009 hPa | 0 mm | - | - | - |
| 1777054596 | 28.89° C | 74% | 1009.2 hPa | 0 mm | - | - | - |
| 1777054292 | 28.89° C | 72% | 1009.1 hPa | 0 mm | - | - | - |
| 1777053992 | 28.89° C | 72% | 1009.3 hPa | 0 mm | - | - | - |
| 1777053687 | 28.89° C | 71% | 1009.2 hPa | 0 mm | - | - | - |
| 1777053386 | 28.33° C | 74% | 1009.2 hPa | 0 mm | - | - | - |
| 1777053081 | 28.33° C | 75% | 1009.4 hPa | 0 mm | - | - | - |
| 1777052778 | 28.33° C | 74% | 1009.6 hPa | 0 mm | - | - | - |
| 1777052477 | 27.78° C | 75% | 1009.7 hPa | 0 mm | - | - | - |
| 1777052175 | 27.78° C | 74% | 1009.6 hPa | 0 mm | - | - | - |
* Rain latest hour (hover to see other rain measurements)
** Current wind speed in m/s (hover to see current wind gust speed)